Tracking 28052 objects as of 25-Sep-2023
HD Live streaming from Space Station
objects crossing your sky now

THOR BURNER 2 R/B

Track THOR BURNER 2 R/B now!
10-day predictions


NORAD ID: 4954
Int'l Code: 1971-012B
Perigee: 743.6 km
Apogee: 796.2 km
Inclination: 98.5 °
Period: 100.1 minutes
Semi major axis: 7140 km
RCS: 1.7004 m2 (large)
Launch date: February 17, 1971
Source: United States (US)
Launch site: AIR FORCE WESTERN TEST RANGE (AFWTR)

Note: This is a ROCKET BODY
Your satellite tracking list
Your tracking list is empty




NASA's NSSDC Master Catalog

Two Line Element Set (TLE):
1 04954U 71012B   23268.56370082  .00000447  00000-0  15864-3 0  9997
2 04954  98.4523 127.7907 0036807 341.4632  18.5212 14.38718621752650
Source of the keplerian elements: AFSPC